Location: Unspecified
(0.0000°N, 0.0000°E)
Time: 06:59:26
(UTC+00:00)

Hubble Space Telescope - Pass Details

Date: 18 October 2019
Orbit: 536 x 540 km, 28.5° (Epoch: 14 October)

Event Time Altitude Azimuth Distance (km) Brightness Sun altitude
Rises 20:06:49 0° 268° (W) 2,676 5.3 -34.8°
Reaches altitude 10° 20:09:53 10° 244° (WSW) 1,786 4.2 -35.6°
Enters shadow 20:10:26 12° 237° (WSW) 1,676 3.9 -35.7°
